This is the latest recevied weather packets stored in our database for station/object KE8WAY. If no packets are shown the sender has not sent any weather packets the latest 10 day(s).
| Time | Temp. | Humidity | Pressure | Rain* | Wind** | Luminosity | Snow |
|---|---|---|---|---|---|---|---|
| 1777621675 | 5.56° C | 90% | 1013.1 hPa | 1.78 mm | - | 0 W/m² | - |
| 1777621372 | 5.56° C | 90% | 1013.1 hPa | 0 mm | - | 0 W/m² | - |
| 1777621067 | 5.56° C | 89% | 1013.2 hPa | 1.27 mm | - | 0 W/m² | - |
| 1777620763 | 5.56° C | 89% | 1013.3 hPa | 1.27 mm | - | 0 W/m² | - |
| 1777620460 | 5.56° C | 89% | 1013.1 hPa | 0 mm | - | 0 W/m² | - |
| 1777620157 | 5.56° C | 88% | 1013.1 hPa | 1.78 mm | - | 0 W/m² | - |
| 1777619853 | 6.11° C | 88% | 1013.2 hPa | 1.78 mm | - | 0 W/m² | - |
| 1777619550 | 5.56° C | 86% | 1013.2 hPa | 1.27 mm | - | 0 W/m² | - |
| 1777619245 | 5.56° C | 86% | 1013.2 hPa | 3.05 mm | - | 0 W/m² | - |
| 1777618939 | 6.11° C | 85% | 1013.5 hPa | 1.78 mm | - | 0 W/m² | - |
| 1777618635 | 6.11° C | 84% | 1013.3 hPa | 1.27 mm | - | 0 W/m² | - |
| 1777618330 | 6.11° C | 83% | 1013.4 hPa | 1.27 mm | - | 0 W/m² | - |
| 1777618027 | 6.11° C | 81% | 1013.6 hPa | 0 mm | - | 0 W/m² | - |
| 1777617722 | 6.11° C | 81% | 1013.4 hPa | 0 mm | - | 0 W/m² | - |
| 1777617417 | 6.67° C | 79% | 1013.5 hPa | 0 mm | - | 0 W/m² | - |
| 1777617116 | 6.67° C | 77% | 1013.4 hPa | 0 mm | - | 0 W/m² | - |
| 1777616811 | 6.67° C | 76% | 1013.6 hPa | 0 mm | - | 0 W/m² | - |
| 1777616507 | 6.67° C | 75% | 1013.4 hPa | 0 mm | - | 0 W/m² | - |
| 1777616202 | 7.22° C | 75% | 1013.5 hPa | 0 mm | - | 0 W/m² | - |
| 1777615899 | 7.22° C | 74% | 1013.4 hPa | 0 mm | - | 0 W/m² | - |
| 1777615590 | 7.22° C | 73% | 1013.5 hPa | 0 mm | - | 0 W/m² | - |
| 1777615287 | 7.22° C | 73% | 1013.2 hPa | 0 mm | - | 0 W/m² | - |
| 1777614980 | 7.22° C | 72% | 1013.7 hPa | 0 mm | - | 0 W/m² | - |
| 1777614677 | 7.22° C | 71% | 1013.4 hPa | 0 mm | - | 0 W/m² | - |
| 1777614372 | 7.22° C | 71% | 1013.8 hPa | 0 mm | - | 0 W/m² | - |
* Rain latest hour (hover to see other rain measurements)
** Current wind speed in m/s (hover to see current wind gust speed)